Location: Unspecified
(34.9622°N, 0.0000°E)
Time: 07:11:25
(UTC+00:00)

NOAA 16 DEB - Visible Passes

Search period start: 04 April 2026 00:00
Search period end: 14 April 2026 00:00
Orbit: 792 x 883 km, 98.8° (Epoch: 29 March)

Date Brightness Start Highest point End Pass type
(mag) Time Alt. Az. Time Alt. Az. Time Alt. Az.
4 Apr ? 19:06:42 10° SSW 19:11:41 35° W 19:16:47 10° NNW visible
5 Apr ? 18:50:34 10° S 18:55:53 49° W 19:01:21 10° NNW visible
7 Apr ? 20:04:56 10° W 20:05:23 10° W 20:05:49 10° W visible
8 Apr ? 19:46:15 10° SW 19:49:25 15° W 19:52:39 10° WNW visible
9 Apr ? 19:29:17 10° SW 19:33:30 22° W 19:37:48 10° NW visible
10 Apr ? 19:12:44 10° SSW 19:17:36 31° W 19:22:35 10° NW visible
11 Apr ? 18:56:27 10° S 19:01:44 44° W 19:07:08 10° NNW visible
